Year,Month,Day,Hour,Minute,Value (Times are PST for temperature in C)
2011,01,17,00,00,11.70
2011,01,17,00,01,11.70
2011,01,17,00,02,11.70
2011,01,17,00,03,11.70
2011,01,17,00,04,11.70
2011,01,17,00,05,11.70
2011,01,17,00,06,11.70
2011,01,17,00,07,11.70
2011,01,17,00,08,11.70
2011,01,17,00,09,11.70
2011,01,17,00,10,11.70
2011,01,17,00,11,11.70
2011,01,17,00,12,11.70
2011,01,17,00,13,11.70
2011,01,17,00,14,11.70
2011,01,17,00,15,11.70
2011,01,17,00,16,11.70
2011,01,17,00,17,11.70
2011,01,17,00,18,11.70
2011,01,17,00,19,11.70
2011,01,17,00,20,11.60
2011,01,17,00,21,11.60
2011,01,17,00,22,11.60
2011,01,17,00,23,11.60
2011,01,17,00,24,11.60
2011,01,17,00,25,11.50
2011,01,17,00,26,11.50
2011,01,17,00,27,11.50
2011,01,17,00,28,11.50
2011,01,17,00,29,11.40
2011,01,17,00,30,11.40
2011,01,17,00,31,11.40
2011,01,17,00,32,11.40
2011,01,17,00,33,11.40
2011,01,17,00,34,11.40
2011,01,17,00,35,11.40
2011,01,17,00,36,11.30
2011,01,17,00,37,11.30
2011,01,17,00,38,11.30
2011,01,17,00,39,11.30
2011,01,17,00,40,11.30
2011,01,17,00,41,11.30
2011,01,17,00,42,11.30
2011,01,17,00,43,11.30
2011,01,17,00,44,11.30
2011,01,17,00,45,11.20
2011,01,17,00,46,11.20
2011,01,17,00,47,11.20
2011,01,17,00,48,11.20
2011,01,17,00,49,11.20
2011,01,17,00,50,11.20
2011,01,17,00,51,11.20
2011,01,17,00,52,11.20
2011,01,17,00,53,11.20
2011,01,17,00,54,11.20
2011,01,17,00,55,11.20
2011,01,17,00,56,11.30
2011,01,17,00,57,11.30
2011,01,17,00,58,11.30
2011,01,17,00,59,11.30
2011,01,17,01,00,11.30
2011,01,17,01,01,11.30
2011,01,17,01,02,11.30
2011,01,17,01,03,11.30
2011,01,17,01,04,11.30
2011,01,17,01,05,11.30
2011,01,17,01,06,11.30
2011,01,17,01,07,11.30
2011,01,17,01,08,11.30
2011,01,17,01,09,11.30
2011,01,17,01,10,11.30
2011,01,17,01,11,11.30
2011,01,17,01,12,11.30
2011,01,17,01,13,11.30
2011,01,17,01,14,11.30
2011,01,17,01,15,11.30
2011,01,17,01,16,11.30
2011,01,17,01,17,11.30
2011,01,17,01,18,11.30
2011,01,17,01,19,11.30
2011,01,17,01,20,11.20
2011,01,17,01,21,11.20
2011,01,17,01,22,11.20
2011,01,17,01,23,11.20
2011,01,17,01,24,11.20
2011,01,17,01,25,11.20
2011,01,17,01,26,11.20
2011,01,17,01,27,11.20
2011,01,17,01,28,11.20
2011,01,17,01,29,11.20
2011,01,17,01,30,11.20
2011,01,17,01,31,11.20
2011,01,17,01,32,11.20
2011,01,17,01,33,11.20
2011,01,17,01,34,11.20
2011,01,17,01,35,11.10
2011,01,17,01,36,11.10
2011,01,17,01,37,11.10
2011,01,17,01,38,11.10
2011,01,17,01,39,11.10
2011,01,17,01,40,11.10
2011,01,17,01,41,11.10
2011,01,17,01,42,11.10
2011,01,17,01,43,11.10
2011,01,17,01,44,11.10
2011,01,17,01,45,11.10
2011,01,17,01,46,11.10
2011,01,17,01,47,11.10
2011,01,17,01,48,11.10
2011,01,17,01,49,11.10
2011,01,17,01,50,11.10
2011,01,17,01,51,11.00
2011,01,17,01,52,11.00
2011,01,17,01,53,11.00
2011,01,17,01,54,11.00
2011,01,17,01,55,11.00
2011,01,17,01,56,11.00
2011,01,17,01,57,11.00
2011,01,17,01,58,11.00
2011,01,17,01,59,11.00
2011,01,17,02,00,10.90
2011,01,17,02,01,11.00
2011,01,17,02,02,11.00
2011,01,17,02,03,11.00
2011,01,17,02,04,11.00
2011,01,17,02,05,11.00
2011,01,17,02,06,11.00
2011,01,17,02,07,11.00
2011,01,17,02,08,11.00
2011,01,17,02,09,11.00
2011,01,17,02,10,10.90
2011,01,17,02,11,10.90
2011,01,17,02,12,10.90
2011,01,17,02,13,10.90
2011,01,17,02,14,10.90
2011,01,17,02,15,10.90
2011,01,17,02,16,10.90
2011,01,17,02,17,10.80
2011,01,17,02,18,10.80
2011,01,17,02,19,10.80
2011,01,17,02,20,10.80
2011,01,17,02,21,10.80
2011,01,17,02,22,10.80
2011,01,17,02,23,10.80
2011,01,17,02,24,10.80
2011,01,17,02,25,10.80
2011,01,17,02,26,10.80
2011,01,17,02,27,10.80
2011,01,17,02,28,10.80
2011,01,17,02,29,10.80
2011,01,17,02,30,10.80
2011,01,17,02,31,10.80
2011,01,17,02,32,10.80
2011,01,17,02,33,10.90
2011,01,17,02,34,10.90
2011,01,17,02,35,10.80
2011,01,17,02,36,10.80
2011,01,17,02,37,10.80
2011,01,17,02,38,10.80
2011,01,17,02,39,10.80
2011,01,17,02,40,10.80
2011,01,17,02,41,10.80
2011,01,17,02,42,10.80
2011,01,17,02,43,10.80
2011,01,17,02,44,10.80
2011,01,17,02,45,10.70
2011,01,17,02,46,10.70
2011,01,17,02,47,10.70
2011,01,17,02,48,10.70
2011,01,17,02,49,10.70
2011,01,17,02,50,10.70
2011,01,17,02,51,10.70
2011,01,17,02,52,10.70
2011,01,17,02,53,10.70
2011,01,17,02,54,10.70
2011,01,17,02,55,10.70
2011,01,17,02,56,10.70
2011,01,17,02,57,10.60
2011,01,17,02,58,10.60
2011,01,17,02,59,10.60
2011,01,17,03,00,10.60
2011,01,17,03,01,10.60
2011,01,17,03,02,10.60
2011,01,17,03,03,10.50
2011,01,17,03,04,10.50
2011,01,17,03,05,10.60
2011,01,17,03,06,10.60
2011,01,17,03,07,10.60
2011,01,17,03,08,10.60
2011,01,17,03,09,10.60
2011,01,17,03,10,10.60
2011,01,17,03,11,10.60
2011,01,17,03,12,10.60
2011,01,17,03,13,10.60
2011,01,17,03,14,10.60
2011,01,17,03,15,10.60
2011,01,17,03,16,10.60
2011,01,17,03,17,10.60
2011,01,17,03,18,10.60
2011,01,17,03,19,10.60
2011,01,17,03,20,10.60
2011,01,17,03,21,10.60
2011,01,17,03,22,10.60
2011,01,17,03,23,10.60
2011,01,17,03,24,10.50
2011,01,17,03,25,10.50
2011,01,17,03,26,10.50
2011,01,17,03,27,10.50
2011,01,17,03,28,10.50
2011,01,17,03,29,10.50
2011,01,17,03,30,10.50
2011,01,17,03,31,10.50
2011,01,17,03,32,10.50
2011,01,17,03,33,10.50
2011,01,17,03,34,10.50
2011,01,17,03,35,10.40
2011,01,17,03,36,10.40
2011,01,17,03,37,10.40
2011,01,17,03,38,10.40
2011,01,17,03,39,10.40
2011,01,17,03,40,10.40
2011,01,17,03,41,10.40
2011,01,17,03,42,10.40
2011,01,17,03,43,10.40
2011,01,17,03,44,10.40
2011,01,17,03,45,10.30
2011,01,17,03,46,10.30
2011,01,17,03,47,10.30
2011,01,17,03,48,10.30
2011,01,17,03,49,10.20
2011,01,17,03,50,10.10
2011,01,17,03,51,10.00
2011,01,17,03,52,9.90
2011,01,17,03,53,9.80
2011,01,17,03,54,9.80
2011,01,17,03,55,9.70
2011,01,17,03,56,9.60
2011,01,17,03,57,9.50
2011,01,17,03,58,9.50
2011,01,17,03,59,9.40
2011,01,17,04,00,9.40
2011,01,17,04,01,9.30
2011,01,17,04,02,9.30
2011,01,17,04,03,9.30
2011,01,17,04,04,9.30
2011,01,17,04,05,9.20
2011,01,17,04,06,9.20
2011,01,17,04,07,9.10
2011,01,17,04,08,9.10
2011,01,17,04,09,9.00
2011,01,17,04,10,9.00
2011,01,17,04,11,8.90
2011,01,17,04,12,8.80
2011,01,17,04,13,8.80
2011,01,17,04,14,8.80
2011,01,17,04,15,8.70
2011,01,17,04,16,8.70
2011,01,17,04,17,8.70
2011,01,17,04,18,8.70
2011,01,17,04,19,8.60
2011,01,17,04,20,8.60
2011,01,17,04,21,8.60
2011,01,17,04,22,8.60
2011,01,17,04,23,8.60
2011,01,17,04,24,8.50
2011,01,17,04,25,8.50
2011,01,17,04,26,8.50
2011,01,17,04,27,8.50
2011,01,17,04,28,8.50
2011,01,17,04,29,8.50
2011,01,17,04,30,8.50
2011,01,17,04,31,8.50
2011,01,17,04,32,8.50
2011,01,17,04,33,8.50
2011,01,17,04,34,8.50
2011,01,17,04,35,8.60
2011,01,17,04,36,8.60
2011,01,17,04,37,8.60
2011,01,17,04,38,8.60
2011,01,17,04,39,8.60
2011,01,17,04,40,8.60
2011,01,17,04,41,8.60
2011,01,17,04,42,8.70
2011,01,17,04,43,8.70
2011,01,17,04,44,8.70
2011,01,17,04,45,8.70
2011,01,17,04,46,8.80
2011,01,17,04,47,8.80
2011,01,17,04,48,8.80
2011,01,17,04,49,8.80
2011,01,17,04,50,8.80
2011,01,17,04,51,8.80
2011,01,17,04,52,8.80
2011,01,17,04,53,8.90
2011,01,17,04,54,8.90
2011,01,17,04,55,9.00
2011,01,17,04,56,9.10
2011,01,17,04,57,9.00
2011,01,17,04,58,9.00
2011,01,17,04,59,9.00
2011,01,17,05,00,9.00
2011,01,17,05,01,9.00
2011,01,17,05,02,9.00
2011,01,17,05,03,9.00
2011,01,17,05,04,9.00
2011,01,17,05,05,9.10
2011,01,17,05,06,9.10
2011,01,17,05,07,9.10
2011,01,17,05,08,9.20
2011,01,17,05,09,9.20
2011,01,17,05,10,9.20
2011,01,17,05,11,9.20
2011,01,17,05,12,9.20
2011,01,17,05,13,9.20
2011,01,17,05,14,9.20
2011,01,17,05,15,9.20
2011,01,17,05,16,9.20
2011,01,17,05,17,9.20
2011,01,17,05,18,9.20
2011,01,17,05,19,9.20
2011,01,17,05,20,9.20
2011,01,17,05,21,9.10
2011,01,17,05,22,9.10
2011,01,17,05,23,9.00
2011,01,17,05,24,9.00
2011,01,17,05,25,9.00
2011,01,17,05,26,9.00
2011,01,17,05,27,9.10
2011,01,17,05,28,9.10
2011,01,17,05,29,9.10
2011,01,17,05,30,9.10
2011,01,17,05,31,9.20
2011,01,17,05,32,9.20
2011,01,17,05,33,9.20
2011,01,17,05,34,9.20
2011,01,17,05,35,9.20
2011,01,17,05,36,9.20
2011,01,17,05,37,9.20
2011,01,17,05,38,9.20
2011,01,17,05,39,9.20
2011,01,17,05,40,9.30
2011,01,17,05,41,9.30
2011,01,17,05,42,9.30
2011,01,17,05,43,9.40
2011,01,17,05,44,9.40
2011,01,17,05,45,9.40
2011,01,17,05,46,9.40
2011,01,17,05,47,9.50
2011,01,17,05,48,9.50
2011,01,17,05,49,9.50
2011,01,17,05,50,9.50
2011,01,17,05,51,9.50
2011,01,17,05,52,9.50
2011,01,17,05,53,9.50
2011,01,17,05,54,9.50
2011,01,17,05,55,9.50
2011,01,17,05,56,9.50
2011,01,17,05,57,9.40
2011,01,17,05,58,9.40
2011,01,17,05,59,9.30
2011,01,17,06,00,9.30
2011,01,17,06,01,9.30
2011,01,17,06,02,9.30
2011,01,17,06,03,9.30
2011,01,17,06,04,9.30
2011,01,17,06,05,9.40
2011,01,17,06,06,9.40
2011,01,17,06,07,9.40
2011,01,17,06,08,9.40
2011,01,17,06,09,9.40
2011,01,17,06,10,9.50
2011,01,17,06,11,9.50
2011,01,17,06,12,9.60
2011,01,17,06,13,9.60
2011,01,17,06,14,9.60
2011,01,17,06,15,9.70
2011,01,17,06,16,9.70
2011,01,17,06,17,9.80
2011,01,17,06,18,9.80
2011,01,17,06,19,9.80
2011,01,17,06,20,9.80
2011,01,17,06,21,9.80
2011,01,17,06,22,9.80
2011,01,17,06,23,9.80
2011,01,17,06,24,9.80
2011,01,17,06,25,9.80
2011,01,17,06,26,9.80
2011,01,17,06,27,9.80
2011,01,17,06,28,9.80
2011,01,17,06,29,9.80
2011,01,17,06,30,9.80
2011,01,17,06,31,9.80
2011,01,17,06,32,9.80
2011,01,17,06,33,9.80
2011,01,17,06,34,9.80
2011,01,17,06,35,9.80
2011,01,17,06,36,9.90
2011,01,17,06,37,9.90
2011,01,17,06,38,9.90
2011,01,17,06,39,9.90
2011,01,17,06,40,9.90
2011,01,17,06,41,9.80
2011,01,17,06,42,9.90
2011,01,17,06,43,9.80
2011,01,17,06,44,9.90
2011,01,17,06,45,9.90
2011,01,17,06,46,9.90
2011,01,17,06,47,9.80
2011,01,17,06,48,9.80
2011,01,17,06,49,9.90
2011,01,17,06,50,9.80
2011,01,17,06,51,9.80
2011,01,17,06,52,9.80
2011,01,17,06,53,9.80
2011,01,17,06,54,9.80
2011,01,17,06,55,9.80
2011,01,17,06,56,9.80
2011,01,17,06,57,9.80
2011,01,17,06,58,9.80
2011,01,17,06,59,9.90
2011,01,17,07,00,9.90
2011,01,17,07,01,9.90
2011,01,17,07,02,9.90
2011,01,17,07,03,9.90
2011,01,17,07,04,9.90
2011,01,17,07,05,9.90
2011,01,17,07,06,9.90
2011,01,17,07,07,9.90
2011,01,17,07,08,9.80
2011,01,17,07,09,9.90
2011,01,17,07,10,9.90
2011,01,17,07,11,9.90
2011,01,17,07,12,9.90
2011,01,17,07,13,9.90
2011,01,17,07,14,9.90
2011,01,17,07,15,9.90
2011,01,17,07,16,9.90
2011,01,17,07,17,9.90
2011,01,17,07,18,9.90
2011,01,17,07,19,9.90
2011,01,17,07,20,9.90
2011,01,17,07,21,9.90
2011,01,17,07,22,9.90
2011,01,17,07,23,9.90
2011,01,17,07,24,9.90
2011,01,17,07,25,9.90
2011,01,17,07,26,9.90
2011,01,17,07,27,9.90
2011,01,17,07,28,9.80
2011,01,17,07,29,9.80
2011,01,17,07,30,9.80
2011,01,17,07,31,9.80
2011,01,17,07,32,9.80
2011,01,17,07,33,9.80
2011,01,17,07,34,9.80
2011,01,17,07,35,9.80
2011,01,17,07,36,9.80
2011,01,17,07,37,9.80
2011,01,17,07,38,9.80
2011,01,17,07,39,9.70
2011,01,17,07,40,9.70
2011,01,17,07,41,9.70
2011,01,17,07,42,9.70
2011,01,17,07,43,9.80
2011,01,17,07,44,9.80
2011,01,17,07,45,9.80
2011,01,17,07,46,9.70
2011,01,17,07,47,9.70
2011,01,17,07,48,9.70
2011,01,17,07,49,9.70
2011,01,17,07,50,9.70
2011,01,17,07,51,9.70
2011,01,17,07,52,9.70
2011,01,17,07,53,9.70
2011,01,17,07,54,9.70
2011,01,17,07,55,9.70
2011,01,17,07,56,9.70
2011,01,17,07,57,9.70
2011,01,17,07,58,9.70
2011,01,17,07,59,9.70
2011,01,17,08,00,9.70
2011,01,17,08,01,9.70
2011,01,17,08,02,9.70
2011,01,17,08,03,9.70
2011,01,17,08,04,9.70
2011,01,17,08,05,9.70
2011,01,17,08,06,9.80
2011,01,17,08,07,9.80
2011,01,17,08,08,9.80
2011,01,17,08,09,9.80
2011,01,17,08,10,9.80
2011,01,17,08,11,9.80
2011,01,17,08,12,9.90
2011,01,17,08,13,9.90
2011,01,17,08,14,9.90
2011,01,17,08,15,9.90
2011,01,17,08,16,9.90
2011,01,17,08,17,9.90
2011,01,17,08,18,9.90
2011,01,17,08,19,9.90
2011,01,17,08,20,9.90
2011,01,17,08,21,9.90
2011,01,17,08,22,9.90
2011,01,17,08,23,9.90
2011,01,17,08,24,9.90
2011,01,17,08,25,9.90
2011,01,17,08,26,10.00
2011,01,17,08,27,10.00
2011,01,17,08,28,10.00
2011,01,17,08,29,10.10
2011,01,17,08,30,10.10
2011,01,17,08,31,10.10
2011,01,17,08,32,10.10
2011,01,17,08,33,10.10
2011,01,17,08,34,10.10
2011,01,17,08,35,10.10
2011,01,17,08,36,10.10
2011,01,17,08,37,10.10
2011,01,17,08,38,10.10
2011,01,17,08,39,10.10
2011,01,17,08,40,10.10
2011,01,17,08,41,10.10
2011,01,17,08,42,10.10
2011,01,17,08,43,10.10
2011,01,17,08,44,10.10
2011,01,17,08,45,10.10
2011,01,17,08,46,10.10
2011,01,17,08,47,10.00
2011,01,17,08,48,10.00
2011,01,17,08,49,10.00
2011,01,17,08,50,10.00
2011,01,17,08,51,10.00
2011,01,17,08,52,10.00
2011,01,17,08,53,10.00
2011,01,17,08,54,10.00
2011,01,17,08,55,10.10
2011,01,17,08,56,10.10
2011,01,17,08,57,10.10
2011,01,17,08,58,10.00
2011,01,17,08,59,10.00
2011,01,17,09,00,10.10
2011,01,17,09,01,10.00
2011,01,17,09,02,10.00
2011,01,17,09,03,10.00
2011,01,17,09,04,10.00
2011,01,17,09,05,10.00
2011,01,17,09,06,10.00
2011,01,17,09,07,10.00
2011,01,17,09,08,10.00
2011,01,17,09,09,10.00
2011,01,17,09,10,10.00
2011,01,17,09,11,10.00
2011,01,17,09,12,10.00
2011,01,17,09,13,10.00
2011,01,17,09,14,10.00
2011,01,17,09,15,10.00
2011,01,17,09,16,10.00
2011,01,17,09,17,10.00
2011,01,17,09,18,10.00
2011,01,17,09,19,10.00
2011,01,17,09,20,10.00
2011,01,17,09,21,10.00
2011,01,17,09,22,10.00
2011,01,17,09,23,10.00
2011,01,17,09,24,10.00
2011,01,17,09,25,10.10
2011,01,17,09,26,10.10
2011,01,17,09,27,10.20
2011,01,17,09,28,10.20
2011,01,17,09,29,10.20
2011,01,17,09,30,10.30
2011,01,17,09,31,10.30
2011,01,17,09,32,10.30
2011,01,17,09,33,10.30
2011,01,17,09,34,10.30
2011,01,17,09,35,10.40
2011,01,17,09,36,10.40
2011,01,17,09,37,10.40
2011,01,17,09,38,10.50
2011,01,17,09,39,10.50
2011,01,17,09,40,10.60
2011,01,17,09,41,10.60
2011,01,17,09,42,10.60
2011,01,17,09,43,10.70
2011,01,17,09,44,10.70
2011,01,17,09,45,10.70
2011,01,17,09,46,10.70
2011,01,17,09,47,10.70
2011,01,17,09,48,10.70
2011,01,17,09,49,10.70
2011,01,17,09,50,10.70
2011,01,17,09,51,10.70
2011,01,17,09,52,10.70
2011,01,17,09,53,10.70
2011,01,17,09,54,10.70
2011,01,17,09,55,10.70
2011,01,17,09,56,10.60
2011,01,17,09,57,10.60
2011,01,17,09,58,10.70
2011,01,17,09,59,10.70
2011,01,17,10,00,10.70
2011,01,17,10,01,10.70
2011,01,17,10,02,10.70
2011,01,17,10,03,10.80
2011,01,17,10,04,10.80
2011,01,17,10,05,10.80
2011,01,17,10,06,10.80
2011,01,17,10,07,10.80
2011,01,17,10,08,10.90
2011,01,17,10,09,10.90
2011,01,17,10,10,10.90
2011,01,17,10,11,11.00
2011,01,17,10,12,11.00
2011,01,17,10,13,11.00
2011,01,17,10,14,11.00
2011,01,17,10,15,11.10
2011,01,17,10,16,11.10
2011,01,17,10,17,11.10
2011,01,17,10,18,11.10
2011,01,17,10,19,11.10
2011,01,17,10,20,11.10
2011,01,17,10,21,11.10
2011,01,17,10,22,11.10
2011,01,17,10,23,11.10
2011,01,17,10,24,11.20
2011,01,17,10,25,11.20
2011,01,17,10,26,11.20
2011,01,17,10,27,11.20
2011,01,17,10,28,11.20
2011,01,17,10,29,11.20
2011,01,17,10,30,11.20
2011,01,17,10,31,11.20
2011,01,17,10,32,11.20
2011,01,17,10,33,11.30
2011,01,17,10,34,11.30
2011,01,17,10,35,11.30
2011,01,17,10,36,11.30
2011,01,17,10,37,11.30
2011,01,17,10,38,11.30
2011,01,17,10,39,11.30
2011,01,17,10,40,11.30
2011,01,17,10,41,11.30
2011,01,17,10,42,11.40
2011,01,17,10,43,11.40
2011,01,17,10,44,11.40
2011,01,17,10,45,11.40
2011,01,17,10,46,11.40
2011,01,17,10,47,11.40
2011,01,17,10,48,11.40
2011,01,17,10,49,11.40
2011,01,17,10,50,11.50
2011,01,17,10,51,11.50
2011,01,17,10,52,11.60
2011,01,17,10,53,11.60
2011,01,17,10,54,11.60
2011,01,17,10,55,11.60
2011,01,17,10,56,11.60
2011,01,17,10,57,11.60
2011,01,17,10,58,11.60
2011,01,17,10,59,11.60
2011,01,17,11,00,11.60
2011,01,17,11,01,11.50
2011,01,17,11,02,11.40
2011,01,17,11,03,11.40
2011,01,17,11,04,11.40
2011,01,17,11,05,11.40
2011,01,17,11,06,11.50
2011,01,17,11,07,11.50
2011,01,17,11,08,11.40
2011,01,17,11,09,11.40
2011,01,17,11,10,11.40
2011,01,17,11,11,11.30
2011,01,17,11,12,11.30
2011,01,17,11,13,11.30
2011,01,17,11,14,11.30
2011,01,17,11,15,11.30
2011,01,17,11,16,11.30
2011,01,17,11,17,11.30
2011,01,17,11,18,11.20
2011,01,17,11,19,11.30
2011,01,17,11,20,11.30
2011,01,17,11,21,11.30
2011,01,17,11,22,11.30
2011,01,17,11,23,11.30
2011,01,17,11,24,11.30
2011,01,17,11,25,11.40
2011,01,17,11,26,11.40
2011,01,17,11,27,11.40
2011,01,17,11,28,11.40
2011,01,17,11,29,11.40
2011,01,17,11,30,11.40
2011,01,17,11,31,11.40
2011,01,17,11,32,11.30
2011,01,17,11,33,11.30
2011,01,17,11,34,11.30
2011,01,17,11,35,11.20
2011,01,17,11,36,11.10
2011,01,17,11,37,11.00
2011,01,17,11,38,10.90
2011,01,17,11,39,10.80
2011,01,17,11,40,10.60
2011,01,17,11,41,10.50
2011,01,17,11,42,10.40
2011,01,17,11,43,10.30
2011,01,17,11,44,10.20
2011,01,17,11,45,10.10
2011,01,17,11,46,10.10
2011,01,17,11,47,10.10
2011,01,17,11,48,10.00
2011,01,17,11,49,10.00
2011,01,17,11,50,9.90
2011,01,17,11,51,9.90
2011,01,17,11,52,9.90
2011,01,17,11,53,9.80
2011,01,17,11,54,9.80
2011,01,17,11,55,9.80
2011,01,17,11,56,9.80
2011,01,17,11,57,9.80
2011,01,17,11,58,9.80
2011,01,17,11,59,9.80
2011,01,17,12,00,9.80
2011,01,17,12,01,9.80
2011,01,17,12,02,9.80
2011,01,17,12,03,9.80
2011,01,17,12,04,9.80
2011,01,17,12,05,9.80
2011,01,17,12,06,9.80
2011,01,17,12,07,9.80
2011,01,17,12,08,9.80
2011,01,17,12,09,9.80
2011,01,17,12,10,9.80
2011,01,17,12,11,9.80
2011,01,17,12,12,9.80
2011,01,17,12,13,9.80
2011,01,17,12,14,9.80
2011,01,17,12,15,9.70
2011,01,17,12,16,9.70
2011,01,17,12,17,9.70
2011,01,17,12,18,9.70
2011,01,17,12,19,9.80
2011,01,17,12,20,9.70
2011,01,17,12,21,9.70
2011,01,17,12,22,9.70
2011,01,17,12,23,9.70
2011,01,17,12,24,9.70
2011,01,17,12,25,9.70
2011,01,17,12,26,9.70
2011,01,17,12,27,9.60
2011,01,17,12,28,9.60
2011,01,17,12,29,9.60
2011,01,17,12,30,9.60
2011,01,17,12,31,9.60
2011,01,17,12,32,9.60
2011,01,17,12,33,9.50
2011,01,17,12,34,9.50
2011,01,17,12,35,9.50
2011,01,17,12,36,9.40
2011,01,17,12,37,9.40
2011,01,17,12,38,9.40
2011,01,17,12,39,9.40
2011,01,17,12,40,9.40
2011,01,17,12,41,9.40
2011,01,17,12,42,9.40
2011,01,17,12,43,9.40
2011,01,17,12,44,9.40
2011,01,17,12,45,9.40
2011,01,17,12,46,9.40
2011,01,17,12,47,9.40
2011,01,17,12,48,9.40
2011,01,17,12,49,9.40
2011,01,17,12,50,9.40
2011,01,17,12,51,9.40
2011,01,17,12,52,9.40
2011,01,17,12,53,9.40
2011,01,17,12,54,9.40
2011,01,17,12,55,9.50
2011,01,17,12,56,9.50
2011,01,17,12,57,9.50
2011,01,17,12,58,9.50
2011,01,17,12,59,9.50
2011,01,17,13,00,9.60
2011,01,17,13,01,9.60
2011,01,17,13,02,9.60
2011,01,17,13,03,9.70
2011,01,17,13,04,9.70
2011,01,17,13,05,9.80
2011,01,17,13,06,9.80
2011,01,17,13,07,9.90
2011,01,17,13,08,9.90
2011,01,17,13,09,10.00
2011,01,17,13,10,10.10
2011,01,17,13,11,10.20
2011,01,17,13,12,10.30
2011,01,17,13,13,10.30
2011,01,17,13,14,10.30
2011,01,17,13,15,10.30
2011,01,17,13,16,10.30
2011,01,17,13,17,10.30
2011,01,17,13,18,10.30
2011,01,17,13,19,10.30
2011,01,17,13,20,10.20
2011,01,17,13,21,10.20
2011,01,17,13,22,10.20
2011,01,17,13,23,10.20
2011,01,17,13,24,10.10
2011,01,17,13,25,10.10
2011,01,17,13,26,10.10
2011,01,17,13,27,10.10
2011,01,17,13,28,10.00
2011,01,17,13,29,10.00
2011,01,17,13,30,9.90
2011,01,17,13,31,9.90
2011,01,17,13,32,9.80
2011,01,17,13,33,9.80
2011,01,17,13,34,9.70
2011,01,17,13,35,9.60
2011,01,17,13,36,9.60
2011,01,17,13,37,9.50
2011,01,17,13,38,9.50
2011,01,17,13,39,9.40
2011,01,17,13,40,9.40
2011,01,17,13,41,9.40
2011,01,17,13,42,9.40
2011,01,17,13,43,9.30
2011,01,17,13,44,9.30
2011,01,17,13,45,9.30
2011,01,17,13,46,9.20
2011,01,17,13,47,9.20
2011,01,17,13,48,9.20
2011,01,17,13,49,9.10
2011,01,17,13,50,9.10
2011,01,17,13,51,9.10
2011,01,17,13,52,9.00
2011,01,17,13,53,9.00
2011,01,17,13,54,8.90
2011,01,17,13,55,8.90
2011,01,17,13,56,8.90
2011,01,17,13,57,8.80
2011,01,17,13,58,8.80
2011,01,17,13,59,8.80
2011,01,17,14,00,8.80
2011,01,17,14,01,8.70
2011,01,17,14,02,8.70
2011,01,17,14,03,8.70
2011,01,17,14,04,8.60
2011,01,17,14,05,8.60
2011,01,17,14,06,8.60
2011,01,17,14,07,8.60
2011,01,17,14,08,8.60
2011,01,17,14,09,8.60
2011,01,17,14,10,8.60
2011,01,17,14,11,8.50
2011,01,17,14,12,8.60
2011,01,17,14,13,8.50
2011,01,17,14,14,8.50
2011,01,17,14,15,8.50
2011,01,17,14,16,8.50
2011,01,17,14,17,8.50
2011,01,17,14,18,8.50
2011,01,17,14,19,8.50
2011,01,17,14,20,8.50
2011,01,17,14,21,8.50
2011,01,17,14,22,8.40
2011,01,17,14,23,8.40
2011,01,17,14,24,8.40
2011,01,17,14,25,8.40
2011,01,17,14,26,8.40
2011,01,17,14,27,8.40
2011,01,17,14,28,8.40
2011,01,17,14,29,8.40
2011,01,17,14,30,8.40
2011,01,17,14,31,8.40
2011,01,17,14,32,8.40
2011,01,17,14,33,8.50
2011,01,17,14,34,8.40
2011,01,17,14,35,8.40
2011,01,17,14,36,8.40
2011,01,17,14,37,8.40
2011,01,17,14,38,8.40
2011,01,17,14,39,8.40
2011,01,17,14,40,8.40
2011,01,17,14,41,8.40
2011,01,17,14,42,8.40
2011,01,17,14,43,8.40
2011,01,17,14,44,8.40
2011,01,17,14,45,8.40
2011,01,17,14,46,8.40
2011,01,17,14,47,8.40
2011,01,17,14,48,8.40
2011,01,17,14,49,8.30
2011,01,17,14,50,8.30
2011,01,17,14,51,8.30
2011,01,17,14,52,8.30
2011,01,17,14,53,8.30
2011,01,17,14,54,8.30
2011,01,17,14,55,8.30
2011,01,17,14,56,8.30
2011,01,17,14,57,8.30
2011,01,17,14,58,8.30
2011,01,17,14,59,8.30
2011,01,17,15,00,8.30
2011,01,17,15,01,8.30
2011,01,17,15,02,8.30
2011,01,17,15,03,8.30
2011,01,17,15,04,8.30
2011,01,17,15,05,8.30
2011,01,17,15,06,8.30
2011,01,17,15,07,8.30
2011,01,17,15,08,8.30
2011,01,17,15,09,8.30
2011,01,17,15,10,8.30
2011,01,17,15,11,8.30
2011,01,17,15,12,8.30
2011,01,17,15,13,8.30
2011,01,17,15,14,8.40
2011,01,17,15,15,8.40
2011,01,17,15,16,8.40
2011,01,17,15,17,8.40
2011,01,17,15,18,8.40
2011,01,17,15,19,8.40
2011,01,17,15,20,8.40
2011,01,17,15,21,8.40
2011,01,17,15,22,8.40
2011,01,17,15,23,8.40
2011,01,17,15,24,8.30
2011,01,17,15,25,8.30
2011,01,17,15,26,8.30
2011,01,17,15,27,8.30
2011,01,17,15,28,8.30
2011,01,17,15,29,8.30
2011,01,17,15,30,8.30
2011,01,17,15,31,8.30
2011,01,17,15,32,8.30
2011,01,17,15,33,8.30
2011,01,17,15,34,8.30
2011,01,17,15,35,8.30
2011,01,17,15,36,8.30
2011,01,17,15,37,8.30
2011,01,17,15,38,8.30
2011,01,17,15,39,8.30
2011,01,17,15,40,8.30
2011,01,17,15,41,8.30
2011,01,17,15,42,8.30
2011,01,17,15,43,8.30
2011,01,17,15,44,8.30
2011,01,17,15,45,8.30
2011,01,17,15,46,8.30
2011,01,17,15,47,8.20
2011,01,17,15,48,8.20
2011,01,17,15,49,8.20
2011,01,17,15,50,8.20
2011,01,17,15,51,8.20
2011,01,17,15,52,8.20
2011,01,17,15,53,8.20
2011,01,17,15,54,8.20
2011,01,17,15,55,8.20
2011,01,17,15,56,8.20
2011,01,17,15,57,8.10
2011,01,17,15,58,8.10
2011,01,17,15,59,8.10
2011,01,17,16,00,8.10
2011,01,17,16,01,8.00
2011,01,17,16,02,8.00
2011,01,17,16,03,8.00
2011,01,17,16,04,8.00
2011,01,17,16,05,8.00
2011,01,17,16,06,8.00
2011,01,17,16,07,8.00
2011,01,17,16,08,8.00
2011,01,17,16,09,7.90
2011,01,17,16,10,7.90
2011,01,17,16,11,7.90
2011,01,17,16,12,7.90
2011,01,17,16,13,7.90
2011,01,17,16,14,7.90
2011,01,17,16,15,7.90
2011,01,17,16,16,7.90
2011,01,17,16,17,7.90
2011,01,17,16,18,7.90
2011,01,17,16,19,7.90
2011,01,17,16,20,7.90
2011,01,17,16,21,7.90
2011,01,17,16,22,7.80
2011,01,17,16,23,7.80
2011,01,17,16,24,7.80
2011,01,17,16,25,7.80
2011,01,17,16,26,7.80
2011,01,17,16,27,7.80
2011,01,17,16,28,7.80
2011,01,17,16,29,7.80
2011,01,17,16,30,7.80
2011,01,17,16,31,7.80
2011,01,17,16,32,7.80
2011,01,17,16,33,7.80
2011,01,17,16,34,7.80
2011,01,17,16,35,7.80
2011,01,17,16,36,7.80
2011,01,17,16,37,7.80
2011,01,17,16,38,7.80
2011,01,17,16,39,7.80
2011,01,17,16,40,7.70
2011,01,17,16,41,7.70
2011,01,17,16,42,7.70
2011,01,17,16,43,7.70
2011,01,17,16,44,7.70
2011,01,17,16,45,7.70
2011,01,17,16,46,7.70
2011,01,17,16,47,7.70
2011,01,17,16,48,7.70
2011,01,17,16,49,7.60
2011,01,17,16,50,7.60
2011,01,17,16,51,7.60
2011,01,17,16,52,7.60
2011,01,17,16,53,7.60
2011,01,17,16,54,7.60
2011,01,17,16,55,7.60
2011,01,17,16,56,7.60
2011,01,17,16,57,7.60
2011,01,17,16,58,7.50
2011,01,17,16,59,7.50
2011,01,17,17,00,7.50
2011,01,17,17,01,7.50
2011,01,17,17,02,7.50
2011,01,17,17,03,7.50
2011,01,17,17,04,7.40
2011,01,17,17,05,7.40
2011,01,17,17,06,7.40
2011,01,17,17,07,7.40
2011,01,17,17,08,7.40
2011,01,17,17,09,7.40
2011,01,17,17,10,7.40
2011,01,17,17,11,7.40
2011,01,17,17,12,7.40
2011,01,17,17,13,7.30
2011,01,17,17,14,7.30
2011,01,17,17,15,7.30
2011,01,17,17,16,7.30
2011,01,17,17,17,7.30
2011,01,17,17,18,7.30
2011,01,17,17,19,7.30
2011,01,17,17,20,7.30
2011,01,17,17,21,7.30
2011,01,17,17,22,7.30
2011,01,17,17,23,7.30
2011,01,17,17,24,7.30
2011,01,17,17,25,7.20
2011,01,17,17,26,7.20
2011,01,17,17,27,7.20
2011,01,17,17,28,7.20
2011,01,17,17,29,7.20
2011,01,17,17,30,7.20
2011,01,17,17,31,7.20
2011,01,17,17,32,7.20
2011,01,17,17,33,7.20
2011,01,17,17,34,7.20
2011,01,17,17,35,7.20
2011,01,17,17,36,7.20
2011,01,17,17,37,7.20
2011,01,17,17,38,7.20
2011,01,17,17,39,7.20
2011,01,17,17,40,7.20
2011,01,17,17,41,7.10
2011,01,17,17,42,7.10
2011,01,17,17,43,7.10
2011,01,17,17,44,7.10
2011,01,17,17,45,7.10